Location: Heppenheim
(49.6410°N, 8.6370°E)
Time: 06:34:25
(UTC+01:00)

ISS - Visible Passes

Search period start: 08 December 2023 00:00
Search period end: 18 December 2023 00:00
Orbit: 415 x 417 km, 51.6° (Epoch: 08 December)

Date Brightness Start Highest point End Pass type
(mag) Time Alt. Az. Time Alt. Az. Time Alt. Az.
08 Dec -0.1 17:29:11 10° WSW 17:30:00 11° SW 17:30:47 10° SSW visible
15 Dec 0.0 06:59:18 10° SE 06:59:52 10° SE 07:00:27 10° SE visible
17 Dec -1.2 06:55:51 10° SSW 06:58:31 22° SE 07:01:13 10° E visible
